Left ArrowRight Arrow

32.84923, -109.75925

Hourly Observations for June 17, 2024

Temp ( °F °C ) Dew Point ( °F °C ) Humidity (%) Winds ( mph kmh ) Pressure ( in mb ) Visibility ( mi km ) Precip ( " mm )
12:51 am 00:51 Clear 85 29.4 25 -3.9 11 11 NW 14 22 29.50 999 10 16 0.00 0.00
1:51 am 01:51 Clear 83 28.3 24 -4.4 11 11 WNW 10 17 29.50 999 10 16 0.00 0.00
2:51 am 02:51 Clear 79 26.1 26 -3.3 14 14 NW 7 11 29.50 999 10 16 0.00 0.00
3:51 am 03:51 Clear 79 26.1 26 -3.3 14 14 N 9 15 29.51 999 10 16 0.00 0.00
4:51 am 04:51 Clear 74 23.3 27 -2.8 17 17 SE 8 13 29.53 1000 10 16 0.00 0.00
5:51 am 05:51 Sunny 72 22.2 27 -2.8 19 19 Calm 29.56 1001 10 16 0.00 0.00
6:51 am 06:51 Sunny 79 26.1 27 -2.8 15 15 Calm 29.56 1001 10 16 0.00 0.00
7:51 am 07:51 Sunny 86 30 28 -2.2 12 12 VRB 3 6 29.57 1001 10 16 0.00 0.00
8:51 am 08:51 Sunny 90 32.2 31 -0.6 12 12 VRB 6 9 29.57 1001 10 16 0.00 0.00
9:51 am 09:51 Sunny 93 33.9 34 1.1 13 13 S 8 13 29.55 1001 10 16 0.00 0.00
10:51 am 10:51 Sunny 96 35.6 31 -0.6 10 10 VRB 5 7 29.53 1000 10 16 0.00 0.00
11:51 am 11:51 Sunny 96 35.6 32 0 11 11 undefined N/A 29.51 999 10 16 0.00 0.00
12:51 pm 12:51 Sunny 99 37.2 31 -0.6 9 9 VRB 6 9 29.48 998 10 16 0.00 0.00
1:51 pm 13:51 Sunny 99 37.2 29 -1.7 9 9 Calm 29.46 998 10 16 0.00 0.00
2:51 pm 14:51 Sunny 102 38.9 25 -3.9 7 7 undefined N/A 29.43 997 10 16 0.00 0.00
3:51 pm 15:51 Sunny 104 40 17 -8.3 4 4 WSW 21 33 29.40 996 10 16 0.00 0.00
4:51 pm 16:51 Sunny 103 39.4 20 -6.7 5 5 W 20 31 29.39 995 10 16 0.00 0.00
5:51 pm 17:51 Sunny 101 38.3 22 -5.6 6 6 W 18 30 29.40 996 10 16 0.00 0.00
6:51 pm 18:51 Sunny 98 36.7 30 -1.1 9 9 W 16 26 29.41 996 10 16 0.00 0.00
7:51 pm 19:51 Clear 93 33.9 23 -5 8 8 WNW 12 19 29.41 996 10 16 0.00 0.00
8:51 pm 20:51 Clear 89 31.7 25 -3.9 10 10 WNW 12 19 29.44 997 10 16 0.00 0.00
9:51 pm 21:51 Clear 88 31.1 29 -1.7 12 12 NW 14 22 29.47 998 10 16 0.00 0.00
10:51 pm 22:51 Clear 85 29.4 30 -1.1 14 14 NW 14 22 29.49 999 10 16 0.00 0.00
11:51 pm 23:51 Clear 83 28.3 30 -1.1 15 15 NW 15 24 29.50 999 10 16 0.00 0.00

Powered by Vaisala Xweather